DLH7RM EDDF-EGLL

Flight info

Callsign DLH7RM
Flight time 1h 10m
Altitude 36000
Route OBOKA3W/25C OBOKA Z29 TORNU DCT ABNED L980 LOGAN
Aircraft A320/M-SDE2E3FGIJ1LORWXYZ/HB1

Departure

Time 2026-05-06 13:11
Airport Frankfurt Main Airport (EDDF)

Arrival

Time 2026-05-06 14:22
Airport London Heathrow Airport (EGLL)
Time Latitude Longitude Altitude Speed Heading
2026-05-06 12:44 50.04830 8.58837 366 ft 0 kts 339°
2026-05-06 13:03 50.04815 8.58845 370 ft 4 kts 339°
2026-05-06 13:03 50.04790 8.58860 368 ft 4 kts 339°
2026-05-06 13:03 50.04765 8.58874 369 ft 3 kts 339°
2026-05-06 13:04 50.04760 8.58877 369 ft 0 kts 339°
2026-05-06 13:08 50.04763 8.58867 370 ft 3 kts 294°
2026-05-06 13:08 50.04741 8.58811 368 ft 9 kts 232°
2026-05-06 13:08 50.04685 8.58766 370 ft 9 kts 190°
2026-05-06 13:09 50.04617 8.58748 371 ft 11 kts 200°
2026-05-06 13:09 50.04554 8.58675 371 ft 12 kts 219°
2026-05-06 13:09 50.04486 8.58574 370 ft 15 kts 239°
2026-05-06 13:09 50.04473 8.58529 370 ft 0 kts 248°
2026-05-06 13:10 50.04447 8.58421 371 ft 41 kts 249°
2026-05-06 13:10 50.04255 8.57629 366 ft 111 kts 249°
2026-05-06 13:10 50.03907 8.56239 377 ft 162 kts 247°
2026-05-06 13:11 50.03485 8.54543 902 ft 174 kts 248°
2026-05-06 13:11 50.03060 8.52758 1801 ft 177 kts 248°
2026-05-06 13:11 50.02609 8.50896 2408 ft 190 kts 244°
2026-05-06 13:11 50.01806 8.49220 3074 ft 198 kts 221°
2026-05-06 13:12 50.00613 8.48194 3975 ft 201 kts 198°
2026-05-06 13:12 49.99231 8.47803 4981 ft 204 kts 191°
2026-05-06 13:12 49.97821 8.47485 5889 ft 206 kts 191°
2026-05-06 13:12 49.96370 8.47158 6711 ft 210 kts 192°
2026-05-06 13:13 49.94943 8.46565 7250 ft 226 kts 198°
2026-05-06 13:13 49.93348 8.45819 7814 ft 243 kts 200°
2026-05-06 13:13 49.91851 8.44639 8617 ft 247 kts 217°
2026-05-06 13:13 49.90624 8.42760 9543 ft 250 kts 234°
2026-05-06 13:14 49.89706 8.40448 10399 ft 253 kts 239°
2026-05-06 13:14 49.88933 8.37978 11229 ft 258 kts 251°
2026-05-06 13:14 49.88617 8.35194 11867 ft 273 kts 267°
2026-05-06 13:14 49.88741 8.32116 12239 ft 298 kts 273°
2026-05-06 13:15 49.88971 8.28790 12616 ft 320 kts 279°
2026-05-06 13:15 49.89720 8.25471 13292 ft 332 kts 295°
2026-05-06 13:15 49.91015 8.22454 14022 ft 340 kts 304°
2026-05-06 13:15 49.92430 8.19488 14763 ft 344 kts 304°
2026-05-06 13:16 49.93890 8.16515 15480 ft 349 kts 309°
2026-05-06 13:16 49.95675 8.13893 16162 ft 357 kts 317°
2026-05-06 13:16 49.97575 8.11379 16878 ft 361 kts 317°
2026-05-06 13:16 49.99499 8.08819 17545 ft 366 kts 316°
2026-05-06 13:17 50.01442 8.06217 18189 ft 371 kts 316°
2026-05-06 13:17 50.03406 8.03584 18808 ft 374 kts 317°
2026-05-06 13:17 50.05385 8.00930 19463 ft 376 kts 316°
2026-05-06 13:17 50.07371 7.98265 20095 ft 378 kts 316°
2026-05-06 13:18 50.09368 7.95581 20730 ft 380 kts 316°
2026-05-06 13:18 50.11374 7.92874 21350 ft 382 kts 316°
2026-05-06 13:18 50.13388 7.90154 21951 ft 385 kts 316°
2026-05-06 13:18 50.15419 7.87420 22572 ft 387 kts 316°
2026-05-06 13:19 50.17461 7.84671 23188 ft 389 kts 315°
2026-05-06 13:19 50.19510 7.81903 23702 ft 391 kts 315°
2026-05-06 13:19 50.21573 7.79105 24201 ft 393 kts 315°
2026-05-06 13:19 50.23643 7.76296 24654 ft 396 kts 315°
2026-05-06 13:20 50.25855 7.73764 25097 ft 403 kts 325°
2026-05-06 13:20 50.28381 7.71783 25524 ft 410 kts 333°
2026-05-06 13:20 50.31010 7.70002 25965 ft 413 kts 333°
2026-05-06 13:20 50.33655 7.68205 26385 ft 416 kts 333°
2026-05-06 13:21 50.36319 7.66391 26814 ft 419 kts 333°
2026-05-06 13:21 50.38997 7.64561 27244 ft 421 kts 333°
2026-05-06 13:21 50.41690 7.62709 27687 ft 424 kts 333°
2026-05-06 13:21 50.44396 7.60841 28103 ft 427 kts 333°
2026-05-06 13:22 50.47129 7.58954 28530 ft 430 kts 333°
2026-05-06 13:22 50.49874 7.57059 28937 ft 432 kts 333°
2026-05-06 13:22 50.52636 7.55149 29328 ft 435 kts 334°
2026-05-06 13:22 50.55400 7.53181 29712 ft 437 kts 330°
2026-05-06 13:23 50.58007 7.50734 30066 ft 437 kts 324°
2026-05-06 13:23 50.60568 7.48114 30381 ft 440 kts 324°
2026-05-06 13:23 50.63109 7.45505 30690 ft 442 kts 325°
2026-05-06 13:23 50.65697 7.42850 30976 ft 445 kts 326°
2026-05-06 13:24 50.68298 7.40179 31262 ft 448 kts 326°
2026-05-06 13:24 50.70897 7.37461 31590 ft 448 kts 322°
2026-05-06 13:24 50.73262 7.34286 32005 ft 445 kts 313°
2026-05-06 13:24 50.75273 7.30590 32410 ft 443 kts 303°
2026-05-06 13:25 50.76891 7.26475 32823 ft 439 kts 295°
2026-05-06 13:25 50.78285 7.22190 33253 ft 438 kts 294°
2026-05-06 13:25 50.79676 7.17910 33695 ft 437 kts 294°
2026-05-06 13:25 50.81064 7.13637 34080 ft 436 kts 294°
2026-05-06 13:26 50.82444 7.09379 34410 ft 436 kts 294°
2026-05-06 13:26 50.83826 7.05110 34713 ft 436 kts 294°
2026-05-06 13:26 50.85208 7.00831 34989 ft 436 kts 294°
2026-05-06 13:26 50.86588 6.96556 35268 ft 437 kts 294°
2026-05-06 13:27 50.87970 6.92274 35577 ft 437 kts 294°
2026-05-06 13:27 50.89354 6.87981 35792 ft 438 kts 294°
2026-05-06 13:27 50.90715 6.83753 35833 ft 432 kts 294°
2026-05-06 13:28 50.93419 6.75310 35838 ft 428 kts 294°
2026-05-06 13:28 50.96100 6.66885 35838 ft 427 kts 294°
2026-05-06 13:29 50.98779 6.58467 35848 ft 428 kts 294°
2026-05-06 13:29 51.01457 6.50033 35846 ft 428 kts 294°
2026-05-06 13:30 51.04127 6.41586 35847 ft 427 kts 294°
2026-05-06 13:30 51.06788 6.33124 35851 ft 427 kts 294°
2026-05-06 13:31 51.09428 6.24712 35860 ft 428 kts 294°
2026-05-06 13:31 51.12074 6.16235 35864 ft 427 kts 294°
2026-05-06 13:32 51.14413 6.07575 35859 ft 424 kts 283°
2026-05-06 13:32 51.15887 5.98483 35855 ft 424 kts 282°
2026-05-06 13:33 51.17361 5.89391 35859 ft 424 kts 282°
2026-05-06 13:33 51.19103 5.80414 35866 ft 426 kts 290°
2026-05-06 13:34 51.21414 5.71710 35870 ft 426 kts 290°
2026-05-06 13:34 51.23328 5.64458 35874 ft 427 kts 290°
2026-05-06 13:35 51.25621 5.55728 35872 ft 427 kts 290°
2026-05-06 13:35 51.27906 5.46984 35875 ft 426 kts 290°
2026-05-06 13:36 51.30189 5.38235 35876 ft 427 kts 290°
2026-05-06 13:36 51.32465 5.29461 35878 ft 427 kts 290°
2026-05-06 13:37 51.34719 5.20752 35894 ft 426 kts 290°
2026-05-06 13:37 51.36975 5.11978 35895 ft 426 kts 290°
2026-05-06 13:38 51.39231 5.03203 35895 ft 426 kts 290°
2026-05-06 13:38 51.41478 4.94413 35894 ft 426 kts 290°
2026-05-06 13:39 51.43718 4.85617 35893 ft 426 kts 290°
2026-05-06 13:39 51.45942 4.76824 35899 ft 426 kts 290°
2026-05-06 13:40 51.48531 4.66567 35905 ft 426 kts 290°
2026-05-06 13:40 51.50394 4.59190 35906 ft 425 kts 290°
2026-05-06 13:41 51.52587 4.50450 35905 ft 425 kts 290°
2026-05-06 13:41 51.54783 4.41635 35906 ft 424 kts 290°
2026-05-06 13:42 51.56972 4.32821 35902 ft 424 kts 290°
2026-05-06 13:42 51.59150 4.24005 35900 ft 424 kts 290°
2026-05-06 13:43 51.61329 4.15193 35895 ft 424 kts 290°
2026-05-06 13:43 51.63501 4.06372 35894 ft 424 kts 289°
2026-05-06 13:44 51.65663 3.97529 35898 ft 424 kts 289°
2026-05-06 13:44 51.67818 3.88689 35903 ft 424 kts 289°
2026-05-06 13:45 51.69959 3.79843 35920 ft 423 kts 289°
2026-05-06 13:45 51.73160 3.66595 35929 ft 422 kts 289°
2026-05-06 13:46 51.75288 3.57756 35925 ft 422 kts 289°
2026-05-06 13:46 51.77405 3.48921 35942 ft 421 kts 288°
2026-05-06 13:47 51.79508 3.40091 35945 ft 421 kts 288°
2026-05-06 13:47 51.81598 3.31270 35946 ft 420 kts 289°
2026-05-06 13:48 51.83669 3.22435 35955 ft 419 kts 287°
2026-05-06 13:48 51.84599 3.13215 35945 ft 415 kts 267°
2026-05-06 13:49 51.84073 3.03955 35945 ft 413 kts 263°
2026-05-06 13:49 51.83463 2.94716 35939 ft 414 kts 262°
2026-05-06 13:50 51.82851 2.85468 35948 ft 413 kts 263°
2026-05-06 13:50 51.82240 2.76285 35946 ft 414 kts 263°
2026-05-06 13:51 51.81612 2.67048 35951 ft 413 kts 262°
2026-05-06 13:51 51.80973 2.57762 35522 ft 416 kts 263°
2026-05-06 13:52 51.80651 2.53137 35022 ft 413 kts 263°
2026-05-06 13:52 51.80327 2.48536 34526 ft 410 kts 262°
2026-05-06 13:52 51.80006 2.43983 34024 ft 407 kts 262°
2026-05-06 13:52 51.79686 2.39453 33474 ft 404 kts 263°
2026-05-06 13:53 51.79371 2.34969 32990 ft 399 kts 263°
2026-05-06 13:53 51.79057 2.30541 32509 ft 395 kts 262°
2026-05-06 13:53 51.78742 2.26158 32031 ft 390 kts 262°
2026-05-06 13:53 51.78425 2.21820 31550 ft 386 kts 263°
2026-05-06 13:54 51.78137 2.17527 31072 ft 383 kts 263°
2026-05-06 13:54 51.77883 2.13256 30609 ft 380 kts 264°
2026-05-06 13:54 51.77649 2.09026 30154 ft 376 kts 264°
2026-05-06 13:54 51.77418 2.04840 29660 ft 373 kts 264°
2026-05-06 13:55 51.77186 2.00705 29232 ft 367 kts 264°
2026-05-06 13:55 51.76952 1.96626 28805 ft 362 kts 263°
2026-05-06 13:55 51.76714 1.92608 28403 ft 357 kts 263°
2026-05-06 13:55 51.76476 1.88652 27995 ft 352 kts 263°
2026-05-06 13:56 51.76238 1.84741 27578 ft 348 kts 263°
2026-05-06 13:56 51.75997 1.80888 27175 ft 344 kts 263°
2026-05-06 13:56 51.75759 1.77121 26774 ft 340 kts 263°
2026-05-06 13:56 51.75522 1.73341 26356 ft 337 kts 263°
2026-05-06 13:57 51.75286 1.69592 25939 ft 334 kts 263°
2026-05-06 13:57 51.75053 1.65871 25507 ft 332 kts 263°
2026-05-06 13:57 51.74822 1.62172 25084 ft 331 kts 263°
2026-05-06 13:57 51.74590 1.58478 24607 ft 334 kts 263°
2026-05-06 13:58 51.74351 1.54723 24096 ft 338 kts 263°
2026-05-06 13:58 51.74109 1.50947 23589 ft 338 kts 263°
2026-05-06 13:58 51.73867 1.47171 23020 ft 338 kts 263°
2026-05-06 13:58 51.73623 1.43405 22512 ft 337 kts 263°
2026-05-06 13:59 51.73378 1.39649 22001 ft 336 kts 264°
2026-05-06 13:59 51.73134 1.35897 21507 ft 336 kts 264°
2026-05-06 13:59 51.72889 1.32153 21001 ft 335 kts 264°
2026-05-06 13:59 51.72643 1.28415 20499 ft 335 kts 264°
2026-05-06 14:00 51.72396 1.24682 20000 ft 335 kts 264°
2026-05-06 14:00 51.72150 1.20948 19498 ft 335 kts 264°
2026-05-06 14:00 51.71903 1.17215 18996 ft 335 kts 264°
2026-05-06 14:00 51.71653 1.13482 18487 ft 335 kts 264°
2026-05-06 14:01 51.71399 1.09745 17958 ft 336 kts 264°
2026-05-06 14:01 51.71142 1.06006 17435 ft 335 kts 264°
2026-05-06 14:01 51.70885 1.02294 16987 ft 332 kts 264°
2026-05-06 14:01 51.70629 0.98597 16499 ft 331 kts 264°
2026-05-06 14:02 51.70378 0.94925 16088 ft 327 kts 264°
2026-05-06 14:02 51.70128 0.91272 15657 ft 326 kts 264°
2026-05-06 14:02 51.69877 0.87643 15209 ft 324 kts 264°
2026-05-06 14:02 51.69629 0.84099 14845 ft 321 kts 264°
2026-05-06 14:03 51.69381 0.80550 14496 ft 317 kts 265°
2026-05-06 14:03 51.69133 0.77027 14075 ft 316 kts 265°
2026-05-06 14:03 51.68883 0.73513 13664 ft 315 kts 264°
2026-05-06 14:03 51.68633 0.70009 13165 ft 315 kts 265°
2026-05-06 14:04 51.68387 0.66514 12736 ft 312 kts 265°
2026-05-06 14:04 51.68142 0.63042 12304 ft 311 kts 265°
2026-05-06 14:04 51.67896 0.59605 11905 ft 308 kts 265°
2026-05-06 14:04 51.67650 0.56227 11259 ft 302 kts 265°
2026-05-06 14:05 51.67407 0.52931 10818 ft 289 kts 264°
2026-05-06 14:05 51.67172 0.49746 10429 ft 285 kts 264°
2026-05-06 14:05 51.66938 0.46573 10058 ft 286 kts 266°
2026-05-06 14:05 51.66705 0.43394 9656 ft 283 kts 266°
2026-05-06 14:06 51.66475 0.40265 9253 ft 281 kts 266°
2026-05-06 14:06 51.66248 0.37159 8875 ft 278 kts 265°
2026-05-06 14:06 51.66029 0.34148 8525 ft 268 kts 266°
2026-05-06 14:06 51.65810 0.31192 8166 ft 266 kts 266°
2026-05-06 14:07 51.65591 0.28235 7805 ft 266 kts 266°
2026-05-06 14:07 51.65367 0.25267 7445 ft 266 kts 264°
2026-05-06 14:07 51.65143 0.22332 7250 ft 262 kts 266°
2026-05-06 14:07 51.64921 0.19391 7166 ft 265 kts 265°
2026-05-06 14:08 51.64698 0.16453 7053 ft 265 kts 266°
2026-05-06 14:08 51.64310 0.13549 6931 ft 267 kts 256°
2026-05-06 14:08 51.63781 0.10678 6806 ft 267 kts 254°
2026-05-06 14:08 51.63254 0.07821 6677 ft 267 kts 256°
2026-05-06 14:09 51.62727 0.04964 6555 ft 265 kts 255°
2026-05-06 14:09 51.62198 0.02117 6426 ft 265 kts 255°
2026-05-06 14:09 51.61685 -0.00647 6333 ft 266 kts 255°
2026-05-06 14:09 51.61153 -0.03531 6193 ft 264 kts 256°
2026-05-06 14:10 51.60630 -0.06358 6076 ft 263 kts 257°
2026-05-06 14:10 51.60108 -0.09177 5954 ft 262 kts 255°
2026-05-06 14:10 51.59588 -0.11984 5829 ft 261 kts 257°
2026-05-06 14:10 51.59066 -0.14781 5708 ft 261 kts 256°
2026-05-06 14:11 51.58541 -0.17575 5587 ft 261 kts 256°
2026-05-06 14:11 51.58017 -0.20367 5457 ft 260 kts 256°
2026-05-06 14:11 51.57496 -0.23149 5289 ft 260 kts 256°
2026-05-06 14:11 51.56975 -0.25927 5168 ft 259 kts 256°
2026-05-06 14:12 51.56489 -0.28703 5041 ft 257 kts 263°
2026-05-06 14:12 51.56329 -0.31545 4915 ft 255 kts 269°
2026-05-06 14:12 51.56262 -0.34384 4856 ft 254 kts 271°
2026-05-06 14:12 51.56214 -0.37235 4858 ft 255 kts 271°
2026-05-06 14:13 51.56171 -0.40082 4853 ft 255 kts 272°
2026-05-06 14:13 51.56108 -0.42925 4851 ft 255 kts 271°
2026-05-06 14:13 51.56053 -0.45776 4851 ft 255 kts 270°
2026-05-06 14:13 51.55993 -0.48628 4850 ft 255 kts 271°
2026-05-06 14:14 51.55914 -0.51435 4852 ft 255 kts 271°
2026-05-06 14:14 51.55842 -0.54282 4852 ft 255 kts 270°
2026-05-06 14:14 51.55784 -0.57132 4847 ft 255 kts 273°
2026-05-06 14:14 51.55716 -0.59970 4812 ft 254 kts 270°
2026-05-06 14:15 51.55663 -0.62810 4730 ft 254 kts 271°
2026-05-06 14:15 51.55607 -0.65651 4649 ft 254 kts 270°
2026-05-06 14:15 51.55557 -0.68494 4568 ft 254 kts 272°
2026-05-06 14:15 51.55490 -0.71336 4487 ft 254 kts 270°
2026-05-06 14:16 51.55428 -0.74168 4374 ft 253 kts 268°
2026-05-06 14:16 51.54875 -0.76832 4235 ft 253 kts 238°
2026-05-06 14:16 51.53588 -0.78664 4100 ft 246 kts 206°
2026-05-06 14:16 51.51981 -0.79261 3967 ft 236 kts 184°
2026-05-06 14:17 51.50345 -0.79299 3777 ft 229 kts 168°
2026-05-06 14:17 51.48926 -0.78360 3671 ft 217 kts 140°
2026-05-06 14:17 51.47980 -0.76616 3524 ft 206 kts 112°
2026-05-06 14:17 51.47615 -0.74473 3314 ft 197 kts 86°
2026-05-06 14:18 51.47621 -0.72279 3055 ft 198 kts 84°
2026-05-06 14:18 51.47639 -0.70066 2829 ft 197 kts 84°
2026-05-06 14:18 51.47653 -0.67893 2545 ft 192 kts 86°
2026-05-06 14:18 51.47664 -0.65815 2284 ft 180 kts 86°
2026-05-06 14:19 51.47673 -0.63884 2037 ft 166 kts 84°
2026-05-06 14:19 51.47682 -0.62098 1832 ft 154 kts 84°
2026-05-06 14:19 51.47691 -0.60402 1619 ft 149 kts 84°
2026-05-06 14:19 51.47698 -0.59287 1482 ft 148 kts 85°
2026-05-06 14:20 51.47705 -0.57651 1258 ft 144 kts 84°
2026-05-06 14:20 51.47712 -0.56069 1049 ft 141 kts 84°
2026-05-06 14:20 51.47719 -0.54515 866 ft 138 kts 83°
2026-05-06 14:20 51.47726 -0.52962 726 ft 140 kts 86°
2026-05-06 14:21 51.47732 -0.51416 496 ft 138 kts 84°
2026-05-06 14:21 51.47743 -0.49850 250 ft 142 kts 85°
2026-05-06 14:21 51.47750 -0.48305 119 ft 134 kts 81°
2026-05-06 14:21 51.47756 -0.46883 95 ft 116 kts 85°
2026-05-06 14:22 51.47768 -0.45964 89 ft 44 kts 91°
2026-05-06 14:22 51.47748 -0.45522 86 ft 25 kts 121°
2026-05-06 14:22 51.47664 -0.45468 86 ft 0 kts 180°
2026-05-06 14:23 51.47663 -0.45468 86 ft 0 kts 180°
2026-05-06 14:24 51.47662 -0.45468 86 ft 1 kts 180°
2026-05-06 14:24 51.47599 -0.45467 86 ft 18 kts 179°
2026-05-06 14:25 51.47510 -0.45322 90 ft 22 kts 94°
2026-05-06 14:25 51.47510 -0.45060 88 ft 25 kts 90°
2026-05-06 14:25 51.47512 -0.44774 88 ft 26 kts 88°
2026-05-06 14:25 51.47440 -0.44556 86 ft 25 kts 175°
2026-05-06 14:26 51.47261 -0.44558 86 ft 25 kts 179°
2026-05-06 14:26 51.47098 -0.44556 86 ft 21 kts 180°
2026-05-06 14:26 51.47037 -0.44625 87 ft 10 kts 267°
2026-05-06 14:26 51.47037 -0.44671 86 ft 2 kts 269°
2026-05-06 14:27 51.47037 -0.44679 86 ft 0 kts 269°
2026-05-06 14:27 51.47037 -0.44681 86 ft 0 kts 270°
2026-05-06 14:27 51.47037 -0.44682 86 ft 0 kts 270°